Belize, Belize

2:47 AM CST on May 27, 2018 (GMT -0600)
Philip S W Goldson International

Weather History for MZBZ - September, 2011

Change the Weather History Date:

Tuesday, September 27, 2011

  Actual Average Record
Temperature  
Mean Temperature 86 °F -  
Max Temperature 89 °F 87 °F 93 °F (2017)
Min Temperature 82 °F 73 °F 74 °F (2012)
Cooling Degree Days 20    
Growing Degree Days 36 (Base 50)    
Moisture  
Dew Point 78 °F    
Average Humidity 75    
Maximum Humidity 89    
Minimum Humidity 63    
Precipitation  
Precipitation 0.00 in 0.34 in - ()
Sea Level Pressure  
Sea Level Pressure 29.89 in    
Wind  
Wind Speed 5 mph ()    
Max Wind Speed 10 mph    
Max Gust Speed -    
Visibility 9.1 miles    
Events      
Averages and records for this station are not official NWS values.
T = Trace of Precipitation, MM = Missing Value Source: Averaged Metar Reports

Daily Weather History Graph

Daily Weather History Graph

Search for Another Location

Airport or City:

Astronomy

Sep. 27, 2011 Rise Set
Actual Time 5:42 AM CST 5:45 PM CST
Civil Twilight 5:21 AM CST 6:07 PM CST
Nautical Twilight 4:55 AM CST 6:32 PM CST
Astronomical Twilight 4:30 AM CST 6:57 PM CST
Moon 5:45 AM CST 5:52 PM CST
Length of Visible Light 12h 45m
Length of Day
12h 02m
New Moon, 0% of the Moon is Illuminated
Sep 27
New Moon
Oct 3
First Quarter
Oct 11
Full
Oct 19
Last Quarter
Oct 26
New

Hourly Weather History & Observations

Time (CST) Temp. Heat Index Dew Point Humidity Pressure Visibility Wind Dir Wind Speed Gust Speed Precip Events Conditions
12:00 AM 84 °F - 77 °F 75% 29.91 in 12 mi East 5.8 mph - -  
12:00 AM 84.2 °F 94.1 °F 77.0 °F 79% 29.89 in 6.2 mi East 5.8 mph - N/A   Scattered Clouds
3:00 AM 82 °F - 78 °F 84% 29.86 in 12 mi Calm Calm - -   Partly Cloudy
3:00 AM 82.4 °F 92.4 °F 78.8 °F 89% 29.85 in 6.2 mi Calm Calm - N/A   Scattered Clouds
6:00 AM 82 °F - 78 °F 83% 29.89 in 16 mi East 5.8 mph - -  
6:00 AM 82.4 °F 90.9 °F 77.0 °F 84% 29.89 in 6.2 mi East 5.8 mph - N/A   Mostly Cloudy
7:00 AM 84.2 °F 96.1 °F 78.8 °F 84% 29.91 in 6.2 mi East 5.8 mph - N/A   Mostly Cloudy
8:00 AM 87.8 °F 99.7 °F 77.0 °F 70% 29.94 in 6.2 mi East 9.2 mph - N/A   Mostly Cloudy
9:00 AM 89 °F - 78 °F 63% 29.94 in 16 mi East 6.9 mph - -   Scattered Clouds
9:00 AM 89.6 °F 104.7 °F 78.8 °F 70% 29.94 in 6.2 mi East 6.9 mph - N/A   Mostly Cloudy
10:00 AM 89.6 °F 104.7 °F 78.8 °F 70% 29.93 in 6.2 mi East 9.2 mph - N/A   Mostly Cloudy
11:00 AM 89.6 °F 102.2 °F 77.0 °F 66% 29.92 in 6.2 mi ENE 10.4 mph - N/A   Mostly Cloudy
12:00 PM 88 °F - 77 °F 63% 29.91 in 16 mi East 8.1 mph - -  
12:00 PM 87.8 °F 99.7 °F 77.0 °F 70% 29.90 in 6.2 mi East 8.1 mph - N/A   Mostly Cloudy
1:00 PM 87.8 °F 102.5 °F 78.8 °F 75% 29.88 in 6.2 mi East 9.2 mph - N/A   Mostly Cloudy
2:00 PM 87.8 °F 102.5 °F 78.8 °F 75% 29.86 in 6.2 mi East 9.2 mph - N/A   Mostly Cloudy
3:00 PM 89 °F - 78 °F 63% 29.85 in 16 mi East 10.4 mph - -   Partly Cloudy
3:00 PM 89.6 °F 104.7 °F 78.8 °F 70% 29.84 in 6.2 mi East 10.4 mph - N/A   Mostly Cloudy
4:00 PM 87.8 °F 99.7 °F 77.0 °F 70% 29.85 in 6.2 mi East 9.2 mph - N/A   Scattered Clouds
5:00 PM 87.8 °F 99.7 °F 77.0 °F 70% 29.85 in 6.2 mi East 8.1 mph - N/A   Scattered Clouds
6:00 PM 85 °F - 78 °F 74% 29.86 in 16 mi East 4.6 mph - -  
6:00 PM 84.2 °F 96.1 °F 78.8 °F 84% 29.86 in 6.2 mi East 4.6 mph - N/A   Scattered Clouds
9:00 PM 83 °F - 78 °F 82% 29.91 in 16 mi East 4.6 mph - -   Scattered Clouds
9:00 PM 84.2 °F 96.1 °F 78.8 °F 84% 29.91 in 6.2 mi East 4.6 mph - N/A   Scattered Clouds